Temp
58 58 59 59 59 58 58 57 57 57 56 57 56 56 56 57 58 59 61 62 62 61 62 62 62 63 62 63 63 63 63 62 64 62 62 63 64 64 64 65 65 66 66
56 58 58 57 58 58 58 58 58 58 57 55 56 56 57 59 59 60 61 61 62 62 62 63 62 62 62 63 63 63 62 62 64 61 60 58 60 62 63 64 64 65 65
54 56 57 56 57 58 57 59 58 57 56 57 57 58 59 59 60 60 60 61 63 62 62 62 62 62 63 62 62 62 63 61 62 63 61 57 56 58 60 61 62 63 63
55 56 56 55 56 59 59 58 58 58 58 57 58 57 57 57 59 60 60 61 62 63 63 62 62 62 62 61 62 62 63 63 60 62 63 65 62 56 55 57 58 60 61
55 56 56 58 57 60 58 58 59 58 58 59 59 59 58 58 59 59 60 60 62 63 63 63 63 63 62 62 62 62 62 63 61 61 62 63 61 60 58 54 54 57 58
55 56 57 57 57 58 59 57 59 58 58 59 60 59 58 57 57 58 58 59 61 62 63 63 62 62 62 63 62 62 62 62 62 62 62 63 60 59 57 56 53 55 57
54 55 55 55 56 58 59 58 58 58 58 59 59 60 58 58 59 59 59 59 60 61 61 62 62 62 62 63 63 62 62 62 61 61 60 61 61 60 58 57 54 56 57
56 54 55 55 57 58 58 58 58 58 58 58 59 59 59 59 58 59 60 59 60 60 61 62 62 62 63 63 63 62 62 61 61 61 62 61 62 61 61 59 56 52 54
53 54 55 55 56 57 58 58 58 57 58 58 58 59 59 60 59 58 60 59 60 62 61 62 61 61 62 63 62 62 61 62 63 63 63 64 63 62 61 60 61 59 55
53 54 55 55 56 57 57 58 58 58 58 58 58 59 59 60 59 58 58 61 61 62 60 59 60 60 60 61 61 60 61 61 62 63 62 62 62 62 61 60 60 61 59
56 56 56 56 57 57 56 58 58 58 57 57 58 58 59 59 59 58 58 59 60 61 60 60 60 60 60 60 59 59 61 61 60 61 62 60 60 60 58 60 58 58 59
58 57 57 56 56 56 56 57 57 58 57 57 58 58 59 59 59 59 58 59 59 60 60 62 60 60 59 60 61 60 61 60 60 60 60 59 60 58 58 60 59 59 59
55 54 55 55 56 56 57 57 58 59 59 58 58 57 57 58 58 58 58 59 59 59 60 60 60 59 59 58 58 59 58 58 58 59 60 59 59 57 59 59 59 59 60
57 56 56 55 56 57 58 58 58 59 59 59 58 57 56 57 57 58 59 59 59 58 58 58 59 59 58 58 57 57 56 55 56 56 57 58 59 59 58 59 58 58 59
57 58 58 57 55 56 58 59 59 59 59 59 58 57 56 57 57 57 57 58 58 58 58 58 57 57 57 59 56 56 55 55 54 54 55 56 57 57 57 58 57 57 57
60 61 61 60 57 59 59 59 59 59 59 59 58 58 57 57 56 56 56 56 56 56 57 57 57 56 57 48 50 53 54 54 55 54 53 54 54 53 50 52 51 53 56
62 62 62 62 62 61 61 59 59 59 59 59 60 59 57 57 56 56 55 54 54 54 55 55 55 55 53 47 47 49 53 53 52 52 52 54 54 53 54 50 50 50 49
63 64 64 63 63 62 60 60 59 60 60 59 60 60 59 58 56 55 54 52 52 53 53 53 54 54 54 46 45 48 51 50 50 51 51 52 52 52 53 53 53 53 52
66 67 67 66 64 62 62 60 59 60 60 60 61 61 60 57 55 55 53 51 51 51 51 53 52 53 53 44 44 49 51 51 51 51 51 51 51 46 45 53 52 51 50
68 68 67 66 64 63 62 60 60 60 61 62 63 62 60 58 56 54 52 52 52 53 53 53 52 51 54 43 43 49 53 52 52 52 51 47 50 43 43 52 52 53 53
65 67 67 66 65 65 63 61 61 61 64 65 64 62 60 58 57 54 53 53 53 53 52 53 52 52 51 50 43 44 54 56 54 54 54 53 43 42 42 46 51 52 50
64 67 66 66 66 65 65 63 61 65 66 66 64 63 59 62 59 54 53 54 53 52 51 52 52 52 52 47 44 43 45 49 55 55 55 53 44 42 41 44 43 42 45
66 68 67 66 66 66 67 65 64 66 66 65 63 62 61 61 58 55 53 54 53 53 54 53 54 55 55 53 45 44 42 43 53 55 50 45 44 42 42 41 41 40 49
66 68 67 66 65 66 68 68 68 68 67 64 63 63 62 60 58 60 58 57 55 54 56 55 56 57 56 55 54 53 50 44 48 48 51 48 46 43 46 46 46 48 49
66 68 68 67 66 68 68 70 69 69 66 65 65 64 64 61 61 61 60 60 59 59 60 59 61 59 58 60 55 53 54 52 50 47 48 48 48 50 50 48 48 48 46
64 67 68 67 68 69 69 70 70 69 67 66 66 65 65 62 64 62 61 50 50 49 48 46 57 62 53 50 46 46 45 43 41 49 49 48 48 50 50 49 50 47 45
MSLP
1014.99 1015.09 1015.07 1015.07 1015.00 1014.97 1014.76 1014.54 1014.47 1014.16 1014.18 1013.97 1013.67 1013.39 1013.09 1012.82 1012.85 1012.42 1012.14 1011.88 1011.86 1011.97 1011.87 1012.14 1012.33 1012.61 1012.91 1012.94 1013.48 1013.83 1014.53 1015.20 1015.51 1016.12 1016.96 1017.85 1018.43 1018.94 1019.31 1019.70 1020.05 1020.54 1020.86
1014.97 1015.05 1015.09 1015.09 1015.07 1014.88 1014.75 1014.52 1014.34 1014.24 1014.28 1014.10 1013.79 1013.66 1013.33 1013.22 1013.13 1012.63 1012.39 1012.19 1011.66 1011.98 1012.10 1012.19 1012.47 1012.71 1013.11 1013.35 1013.71 1014.16 1014.75 1015.22 1015.68 1016.20 1016.77 1018.05 1019.22 1019.69 1019.98 1020.24 1020.47 1020.90 1021.15
1014.83 1015.00 1015.09 1015.11 1015.13 1014.84 1014.70 1014.52 1014.36 1014.34 1014.38 1014.08 1013.80 1013.48 1013.09 1013.34 1013.21 1012.79 1012.92 1012.64 1012.30 1011.96 1011.99 1012.16 1012.54 1012.84 1013.28 1013.61 1014.01 1014.40 1014.58 1015.05 1016.06 1016.24 1016.81 1017.34 1018.53 1019.89 1020.74 1020.88 1020.99 1021.40 1021.87
1014.58 1014.84 1014.96 1015.10 1015.16 1014.75 1014.64 1014.48 1014.40 1014.41 1014.39 1014.15 1013.89 1013.86 1013.76 1013.84 1013.62 1013.49 1013.30 1013.21 1012.72 1012.56 1012.60 1012.64 1012.92 1013.35 1013.51 1013.98 1014.13 1014.72 1014.85 1015.12 1016.12 1016.45 1016.49 1016.93 1018.00 1019.16 1020.62 1021.59 1021.99 1022.26 1022.54
1014.02 1014.49 1014.72 1014.83 1014.81 1014.64 1014.66 1014.55 1014.43 1014.56 1014.53 1014.32 1014.14 1014.00 1014.03 1014.21 1013.73 1013.40 1013.50 1013.33 1013.18 1013.03 1013.12 1013.28 1013.43 1013.94 1014.23 1014.37 1014.69 1013.24 1015.48 1015.43 1016.05 1016.62 1017.37 1018.14 1018.96 1019.39 1020.02 1021.69 1022.90 1023.24 1023.57
1013.72 1014.17 1014.28 1014.68 1014.73 1014.61 1014.67 1014.75 1014.63 1014.63 1014.72 1014.65 1014.29 1014.14 1014.11 1014.44 1014.33 1013.93 1013.43 1013.08 1012.98 1013.36 1013.35 1013.46 1013.79 1014.39 1014.75 1014.90 1015.10 1015.33 1015.67 1016.18 1016.47 1017.15 1017.52 1017.99 1018.75 1019.71 1020.29 1021.69 1023.03 1023.76 1024.49
1013.33 1013.93 1014.37 1014.61 1014.71 1014.67 1014.63 1014.87 1014.84 1014.84 1014.95 1014.90 1014.69 1014.53 1014.38 1014.19 1014.26 1014.40 1014.31 1014.03 1013.84 1013.94 1014.09 1013.75 1014.09 1014.66 1015.11 1015.46 1015.65 1015.93 1016.16 1016.62 1017.15 1017.42 1018.12 1018.53 1019.17 1019.67 1020.51 1021.55 1022.78 1023.70 1024.70
1012.91 1013.54 1013.96 1014.22 1014.50 1014.55 1014.56 1014.85 1014.97 1015.12 1015.11 1015.14 1014.95 1014.77 1014.67 1014.54 1014.57 1014.52 1014.54 1014.55 1014.55 1014.41 1014.29 1014.24 1014.56 1015.14 1015.38 1015.79 1016.11 1016.58 1016.73 1017.41 1017.61 1017.85 1018.10 1018.68 1019.40 1019.87 1020.38 1021.32 1022.24 1023.90 1024.63
1012.63 1013.18 1013.64 1013.92 1014.25 1014.49 1014.42 1014.71 1014.94 1015.17 1015.34 1015.32 1015.21 1015.11 1015.01 1014.88 1014.97 1015.01 1014.95 1014.94 1015.08 1015.08 1015.14 1015.11 1015.07 1015.32 1015.66 1015.86 1016.55 1016.97 1017.41 1017.70 1017.91 1018.10 1018.35 1018.70 1019.31 1019.85 1020.35 1020.89 1021.20 1022.10 1023.93
1012.37 1012.88 1013.32 1013.62 1013.99 1014.21 1014.32 1014.56 1014.78 1015.02 1015.35 1015.47 1015.44 1015.36 1015.33 1015.20 1015.30 1015.30 1015.30 1015.23 1015.37 1015.32 1015.39 1015.18 1015.36 1015.46 1015.83 1016.30 1016.74 1017.14 1017.59 1018.07 1018.37 1018.35 1018.64 1019.07 1019.64 1020.30 1020.76 1021.22 1021.65 1021.97 1022.56
1011.62 1012.30 1012.86 1013.16 1013.63 1014.03 1014.28 1014.41 1014.78 1014.96 1015.35 1015.61 1015.64 1015.65 1015.51 1015.59 1015.66 1015.74 1015.73 1015.63 1015.52 1015.37 1015.56 1015.73 1015.62 1015.85 1016.31 1016.71 1017.03 1017.39 1017.72 1018.10 1018.37 1018.80 1019.11 1019.74 1020.20 1020.75 1021.18 1021.62 1022.08 1022.26 1022.53
1010.91 1011.68 1012.41 1012.82 1013.45 1013.95 1014.17 1014.27 1014.73 1014.93 1015.23 1015.56 1015.78 1015.84 1015.87 1015.88 1016.01 1016.20 1016.28 1016.20 1016.08 1016.06 1015.93 1016.11 1016.38 1016.54 1016.65 1017.03 1017.14 1017.71 1018.22 1018.54 1018.91 1019.31 1019.68 1020.05 1020.30 1021.13 1021.50 1021.85 1022.22 1022.63 1022.90
1011.16 1011.64 1012.35 1012.67 1013.11 1013.55 1013.90 1014.11 1014.51 1014.76 1015.12 1015.53 1015.92 1016.15 1016.15 1016.21 1016.43 1016.61 1016.69 1016.70 1016.63 1016.62 1016.72 1016.76 1017.11 1017.39 1017.50 1017.54 1017.77 1017.91 1018.36 1018.77 1019.20 1019.64 1020.10 1020.65 1021.02 1021.55 1021.72 1021.97 1022.34 1022.73 1023.07
1010.67 1011.11 1011.76 1012.25 1012.74 1013.02 1013.46 1013.82 1014.22 1014.62 1014.98 1015.45 1015.94 1016.32 1016.53 1016.53 1016.68 1016.88 1017.01 1017.09 1017.21 1017.28 1017.44 1017.55 1017.79 1017.95 1018.16 1018.36 1018.70 1018.88 1019.22 1019.51 1019.85 1020.13 1020.37 1020.66 1020.89 1021.13 1021.64 1022.09 1022.53 1022.96 1023.40
1010.51 1010.35 1010.90 1011.58 1012.27 1012.67 1013.06 1013.43 1013.74 1014.34 1014.84 1015.36 1015.85 1016.20 1016.57 1016.78 1016.95 1017.19 1017.36 1017.53 1017.71 1017.92 1018.13 1018.32 1018.63 1018.76 1018.81 1019.02 1019.32 1019.63 1019.95 1020.12 1020.48 1020.68 1020.86 1021.08 1021.28 1021.57 1021.74 1022.17 1022.80 1023.24 1023.65
1009.14 1009.65 1010.15 1010.60 1011.50 1012.12 1012.53 1012.92 1013.39 1013.94 1014.56 1015.13 1015.66 1016.08 1016.51 1016.86 1017.13 1017.41 1017.69 1017.96 1018.34 1018.59 1018.69 1018.90 1019.14 1019.49 1019.73 1019.75 1019.81 1020.06 1020.45 1020.83 1021.11 1021.47 1021.73 1021.93 1022.01 1022.21 1022.39 1022.52 1023.06 1023.37 1023.60
1007.88 1008.99 1008.74 1009.38 1010.18 1011.02 1011.80 1012.48 1012.79 1013.48 1014.18 1014.81 1015.45 1015.91 1016.38 1016.82 1017.25 1017.54 1017.88 1018.28 1018.65 1018.91 1019.20 1019.38 1019.62 1019.99 1020.21 1020.29 1020.47 1020.79 1021.08 1021.35 1021.60 1021.90 1022.11 1022.30 1022.48 1022.51 1022.75 1023.11 1023.30 1023.54 1023.60
1006.53 1007.35 1008.54 1008.78 1009.42 1010.23 1011.17 1011.76 1012.39 1012.99 1013.66 1014.41 1015.10 1015.71 1016.24 1016.67 1017.18 1017.68 1018.08 1018.48 1018.82 1019.10 1019.42 1019.65 1019.91 1020.14 1020.27 1020.39 1020.65 1020.91 1021.19 1021.58 1021.94 1022.22 1022.43 1022.57 1022.78 1022.86 1022.98 1023.27 1023.54 1023.74 1023.86
1004.74 1005.65 1006.59 1007.54 1008.71 1009.48 1010.16 1011.29 1012.15 1012.65 1013.24 1013.86 1014.54 1015.15 1015.78 1016.47 1017.07 1017.60 1018.08 1018.53 1018.95 1019.39 1019.59 1019.72 1019.92 1020.16 1020.41 1020.65 1020.90 1021.14 1021.47 1021.80 1022.07 1022.28 1022.49 1022.65 1022.97 1023.23 1023.34 1023.48 1023.93 1024.24 1024.36
1004.09 1004.55 1005.71 1007.02 1007.96 1008.77 1009.79 1010.70 1011.54 1012.20 1012.67 1013.04 1013.68 1014.41 1015.15 1015.89 1016.63 1017.28 1017.91 1018.25 1018.62 1018.89 1019.23 1019.54 1019.77 1020.07 1020.42 1020.70 1020.96 1021.07 1021.34 1021.74 1021.90 1021.99 1022.11 1022.43 1022.72 1023.35 1023.64 1023.70 1023.97 1024.11 1024.19
1003.03 1004.06 1005.01 1005.60 1006.28 1007.54 1008.80 1009.82 1010.62 1011.21 1011.54 1012.15 1012.88 1013.79 1014.57 1015.26 1015.84 1016.64 1017.36 1017.78 1018.25 1018.69 1019.12 1019.40 1019.61 1019.88 1020.12 1020.36 1020.53 1020.74 1020.85 1020.97 1021.33 1021.47 1021.67 1022.13 1022.77 1023.21 1023.47 1023.28 1023.53 1023.60 1023.69
1002.49 1003.16 1004.15 1004.87 1005.69 1006.81 1007.78 1008.89 1009.50 1009.85 1010.82 1011.59 1012.39 1013.25 1014.00 1014.68 1015.53 1016.29 1017.01 1017.50 1018.02 1018.50 1018.85 1019.14 1019.29 1019.25 1019.37 1019.59 1019.81 1020.04 1020.20 1020.47 1020.79 1020.86 1021.39 1021.87 1022.25 1022.60 1022.78 1022.94 1022.92 1023.27 1023.44
1001.81 1002.43 1003.07 1004.13 1005.00 1005.76 1006.40 1007.66 1008.22 1009.15 1010.08 1011.10 1011.87 1012.67 1013.40 1014.06 1014.76 1015.70 1016.46 1017.14 1017.55 1017.90 1018.20 1018.51 1018.56 1018.39 1018.58 1018.85 1019.12 1019.46 1019.72 1020.00 1020.56 1020.72 1021.00 1021.45 1021.58 1021.93 1022.30 1022.51 1022.65 1023.16 1023.22
1001.28 1001.54 1002.59 1003.32 1004.18 1004.66 1005.32 1005.87 1007.22 1008.30 1009.09 1010.20 1011.10 1011.97 1012.85 1013.64 1014.41 1014.99 1015.66 1016.27 1016.80 1017.29 1017.61 1017.91 1018.02 1017.89 1018.07 1018.31 1018.42 1018.70 1019.27 1019.88 1020.35 1020.59 1020.93 1021.14 1021.51 1021.77 1021.91 1022.16 1022.37 1022.47 1022.54
1001.12 1001.12 1001.53 1002.02 1002.68 1003.34 1004.08 1005.27 1006.25 1007.18 1008.36 1009.18 1010.23 1011.14 1011.91 1012.75 1013.58 1014.16 1014.62 1015.26 1015.58 1015.79 1016.23 1016.41 1016.59 1017.12 1017.41 1016.83 1017.62 1018.24 1018.70 1019.02 1019.47 1020.21 1020.66 1020.83 1020.94 1021.11 1021.22 1021.26 1021.53 1021.84 1022.06
1000.21 1000.63 1000.91 1001.19 1001.56 1002.15 1003.27 1004.33 1005.10 1006.02 1007.09 1008.24 1009.21 1010.05 1010.91 1011.83 1012.59 1013.33 1013.98 1014.30 1014.34 1014.66 1014.91 1015.12 1015.84 1016.26 1016.37 1016.54 1016.87 1017.13 1017.65 1018.19 1018.75 1019.70 1019.67 1020.08 1020.45 1020.59 1020.68 1020.91 1021.08 1021.04 1020.75
Wind_Speed
6 5 5 5 4 1 3 4 5 5 3 3 3 3 3 3 3 3 3 1 2 3 4 4 4 4 5 8 8 9 11 7 11 8 9 8 9 9 8 5 5 5 3
6 5 5 3 3 2 4 3 4 4 4 2 2 1 2 2 1 2 5 5 4 6 3 6 5 5 6 8 8 9 8 9 7 8 9 7 7 7 6 6 6 7 6
9 7 6 5 4 2 3 3 4 5 4 5 2 3 2 2 2 3 2 3 6 7 7 7 6 7 6 5 8 6 12 9 7 6 4 6 4 6 3 7 7 8 6
6 6 6 5 6 3 2 3 3 4 3 5 3 4 2 2 2 1 2 3 5 8 8 8 6 7 7 7 7 4 6 12 9 3 5 6 5 5 5 5 6 7 6
10 9 9 8 7 4 1 1 3 4 3 2 3 3 4 3 2 1 3 4 4 7 6 6 7 7 6 7 8 7 7 6 4 5 7 9 6 4 5 6 4 6 5
9 8 7 5 5 4 1 2 3 3 3 1 2 4 3 3 3 4 5 5 4 4 5 5 5 6 7 8 7 7 10 7 7 6 7 7 5 8 5 7 4 4 3
10 9 8 7 5 6 5 2 3 1 1 2 2 1 3 4 5 4 3 4 3 3 3 2 3 4 6 7 8 7 7 5 5 6 7 6 7 4 5 6 3 4 1
11 9 9 8 7 7 6 4 4 2 0 1 1 1 2 2 3 3 3 3 3 3 2 0 1 6 4 6 6 6 5 4 5 6 8 8 7 7 5 5 8 4 2
10 11 8 8 7 7 7 7 5 4 2 2 1 1 1 2 4 5 3 2 3 3 5 1 3 5 5 4 6 4 4 4 3 5 7 9 6 6 4 3 3 5 4
9 8 8 8 7 6 4 6 5 6 4 2 2 1 0 2 4 4 4 1 2 2 5 4 5 6 6 7 6 4 5 6 3 4 7 5 4 5 4 4 3 2 4
14 11 9 7 7 4 6 6 6 5 4 3 2 2 1 3 4 5 5 4 4 4 6 6 6 6 8 8 7 6 7 7 6 5 7 6 5 4 4 3 2 3 3
14 11 10 8 7 7 6 7 6 6 5 4 3 3 3 3 4 5 5 3 6 4 6 6 8 6 6 5 8 8 6 9 9 7 8 6 5 5 4 4 4 3 3
8 8 7 8 8 7 6 7 7 6 6 5 4 4 3 3 3 3 4 5 6 5 6 8 8 7 7 9 8 8 8 7 7 6 9 9 9 6 4 3 4 3 3
12 10 9 8 7 7 7 7 7 6 6 5 5 4 4 3 3 4 3 5 5 6 6 6 7 7 8 9 8 8 8 8 7 6 6 6 5 6 6 4 4 4 5
11 14 13 11 7 7 7 6 7 7 6 6 5 5 4 3 3 4 4 4 5 5 5 7 6 5 6 5 7 6 6 7 7 6 6 6 6 7 5 4 5 6 4
17 15 12 12 11 10 9 7 8 8 7 7 6 5 5 5 4 4 5 5 6 5 5 6 6 5 3 6 8 7 6 5 5 5 5 4 6 8 10 9 11 4 6
16 15 18 16 14 13 11 9 9 7 8 8 7 6 6 6 5 5 5 5 5 4 5 5 5 5 5 7 9 8 5 5 4 4 4 4 4 5 5 9 10 9 8
17 17 13 12 13 10 8 7 7 9 8 7 8 7 6 6 6 6 6 5 4 5 4 4 4 3 2 6 7 7 6 5 5 5 5 5 4 3 5 5 5 3 3
18 17 17 14 11 13 13 10 8 9 9 8 9 9 8 7 6 6 6 4 4 4 4 4 5 5 3 6 7 7 4 4 5 4 4 5 5 6 7 5 5 4 2
14 16 16 13 13 13 12 12 11 11 11 10 10 9 9 9 8 8 7 4 4 5 4 4 4 5 5 8 9 6 3 4 4 4 5 7 6 9 8 5 4 3 2
14 12 15 19 19 16 15 15 13 14 13 11 10 10 9 10 9 7 5 5 5 4 4 5 5 6 7 7 14 12 5 4 4 4 4 4 8 9 10 8 5 5 4
13 17 16 16 15 16 17 16 15 15 12 12 12 11 9 8 7 8 5 5 6 6 6 5 5 5 6 9 11 13 12 8 5 5 2 3 10 11 10 7 7 8 5
13 15 16 16 15 17 18 18 16 14 14 13 12 11 10 9 8 9 7 4 5 4 5 4 4 5 3 5 11 11 12 11 4 0 3 6 8 8 5 9 9 7 5
11 13 14 17 17 18 19 19 17 16 17 15 13 11 11 10 7 6 6 6 6 5 5 5 7 6 4 5 5 6 4 5 6 2 2 3 3 4 4 4 6 6 6
6 12 16 17 18 18 19 17 17 18 16 16 13 12 11 12 10 9 10 10 9 11 9 11 10 8 8 10 6 8 6 6 7 6 3 3 3 3 5 6 6 5 5
5 10 13 15 16 18 17 17 18 20 19 16 13 12 11 9 9 9 8 11 11 17 18 4 9 6 9 9 13 16 13 13 15 3 3 3 4 6 5 5 5 5 7
Wind_Direction
210 208 223 235 278 231 312 329 320 337 343 327 331 342 334 344 22 339 20 317 100 80 96 107 111 114 137 136 137 124 140 135 129 116 105 98 104 101 105 85 99 106 150
178 203 219 219 281 310 275 314 313 355 344 308 301 296 313 25 344 335 9 5 49 105 97 114 118 114 131 117 129 134 141 129 139 128 122 117 109 80 80 93 101 97 100
182 198 202 217 261 306 294 295 301 332 330 335 326 340 329 72 39 349 32 8 61 72 63 83 87 79 111 101 118 141 140 129 122 118 158 118 121 116 53 76 74 76 88
179 195 191 200 225 242 276 19 349 338 337 338 45 50 21 34 347 355 356 47 60 68 67 58 68 79 93 95 120 84 120 136 130 97 53 91 116 117 132 52 56 59 64
178 192 192 204 219 233 236 20 1 20 8 337 78 73 31 34 345 54 102 58 53 67 72 74 68 74 81 99 102 94 97 119 100 110 118 102 83 83 123 108 93 60 32
183 197 194 198 220 227 198 69 25 359 44 290 56 72 49 48 76 21 22 20 42 67 52 67 78 88 99 108 96 83 87 88 93 108 116 129 138 141 123 119 83 106 62
176 189 186 201 211 208 202 149 88 8 44 245 295 19 44 45 69 86 93 48 37 55 97 106 71 56 89 99 115 81 84 82 97 110 110 100 108 110 100 103 93 107 81
179 185 188 196 200 211 201 181 137 140 268 174 201 21 80 59 53 71 80 67 52 84 110 127 108 98 108 117 115 104 102 122 137 119 126 122 126 133 131 138 139 98 87
178 185 190 196 200 211 201 185 172 151 204 194 196 187 306 83 73 69 83 88 89 88 106 144 230 118 138 138 118 125 129 131 127 132 133 137 125 141 111 110 121 124 137
177 184 190 196 208 215 180 180 189 170 179 183 166 197 224 37 54 66 87 135 70 41 103 99 110 104 117 127 124 131 143 129 145 132 117 106 106 121 116 124 92 94 131
180 183 194 194 205 196 181 181 182 174 172 187 156 143 56 66 56 65 63 73 64 60 88 99 82 91 116 124 127 121 128 123 111 98 115 108 122 123 107 108 99 95 87
179 175 189 179 186 204 180 179 180 177 187 181 149 142 108 73 68 69 68 65 88 56 75 81 84 76 73 86 111 111 114 119 119 120 115 113 97 113 141 138 129 140 134
176 166 178 183 189 198 188 171 179 187 168 164 149 144 125 109 99 77 60 67 88 71 60 82 84 86 84 81 66 80 78 79 92 119 134 142 142 143 143 142 128 114 112
184 179 186 191 195 189 188 175 181 174 164 163 157 158 164 170 134 111 83 87 95 97 77 63 81 85 87 86 83 88 86 81 75 81 91 103 105 130 132 127 144 130 125
200 193 189 191 193 189 195 185 175 164 164 162 168 183 159 144 117 113 109 98 90 102 109 100 70 72 91 107 107 96 95 95 84 63 64 63 83 103 131 134 150 145 132
199 205 197 181 185 193 193 189 172 169 157 162 180 166 153 142 127 118 122 114 103 96 108 108 117 112 93 110 97 108 106 97 100 104 82 72 72 66 55 72 80 94 148
189 205 193 193 189 184 186 191 179 151 162 162 161 164 159 146 146 137 128 129 137 130 131 129 133 137 141 133 124 125 126 130 119 115 104 80 61 74 90 84 88 80 89
192 193 206 193 189 177 174 168 156 164 163 161 160 156 160 153 153 151 153 146 141 151 144 145 144 142 155 152 148 127 123 117 128 141 143 133 132 128 134 125 112 108 80
190 195 194 196 176 180 172 163 155 163 159 168 168 166 163 154 156 164 163 148 137 154 177 182 170 175 193 175 162 142 134 136 151 156 165 165 165 173 156 134 140 147 152
195 186 186 179 173 182 169 162 166 167 180 175 180 170 165 162 168 171 170 159 165 178 165 173 193 196 198 184 192 168 151 160 184 197 197 195 176 168 174 152 162 179 212
180 176 174 180 188 172 168 176 171 182 188 176 168 168 170 173 174 162 158 162 168 159 185 203 206 209 202 198 198 199 181 187 192 210 205 201 187 178 188 183 179 195 162
170 172 176 183 177 175 172 185 182 186 174 168 168 174 172 176 167 166 166 167 165 181 196 206 233 220 215 213 203 205 215 183 203 216 173 194 191 198 199 192 207 188 163
175 175 173 174 178 179 182 187 190 173 166 169 172 176 174 178 166 168 170 165 176 186 206 213 235 253 224 230 217 215 216 217 229 204 166 178 203 209 208 223 217 187 208
189 173 169 177 184 185 190 193 176 176 170 175 177 175 175 178 169 180 178 182 184 198 211 217 235 244 250 245 225 224 216 202 208 145 145 205 199 211 224 225 224 229 221
203 176 183 184 191 186 194 183 178 173 182 175 180 181 182 181 181 190 184 192 210 200 200 217 217 210 230 238 189 183 198 197 199 146 180 200 197 219 236 237 234 229 226
195 193 199 193 188 189 190 186 177 180 178 181 181 187 185 181 185 189 202 232 232 208 219 207 199 221 232 183 190 196 193 185 154 170 208 208 210 236 253 269 263 223 196